Weather History for KMCD - August, 2014

Change the Weather History Date:

Tuesday, August 19, 2014

  Actual Average Record
Temperature  
Mean Temperature 62 °F -  
Max Temperature 67 °F 70 °F 84 °F (1983)
Min Temperature 57 °F 57 °F 47 °F (1975)
Degree Days  
Heating Degree Days 3    
Growing Degree Days 12 (Base 50)    
Moisture  
Dew Point 59 °F    
Average Humidity 98    
Maximum Humidity 100    
Minimum Humidity 93    
Precipitation  
Precipitation 0.01 in - - ()
Sea Level Pressure  
Sea Level Pressure 29.72 in    
Wind  
Wind Speed 9 mph (East)    
Max Wind Speed 14 mph    
Max Gust Speed 23 mph    
Visibility 6 miles    
Events Fog , Rain    
Averages and records for this station are not official NWS values.
T = Trace of Precipitation, MM = Missing Value Source: NWS Daily Summary

Daily Weather History Graph

Daily Weather History Graph

Search for Another Location

Airport or City:

Trip Planner

Search our weather history database for the weather conditions in past years. The results will help you decide how hot, cold, wet, or windy it might be!

Date:

Astronomy

Aug. 19, 2014 Rise Set
Actual Time 6:43 AM EDT 8:40 PM EDT
Civil Twilight 6:11 AM EDT 9:12 PM EDT
Nautical Twilight 5:31 AM EDT 9:51 PM EDT
Astronomical Twilight 4:48 AM EDT 10:34 PM EDT
Moon 1:29 AM EDT (8/19) 4:41 PM EDT (8/19)
Length of Visible Light 15h 00m
Length of Day
13h 56m
Waning Crescent, 29% of the Moon is Illuminated
Aug 19
Waning Crescent
Aug 25
New
Sep 2
First Quarter
Sep 8
Full
Sep 15
Last Quarter

Hourly Weather History & Observations

Time (EDT) Temp. Dew Point Humidity Pressure Visibility Wind Dir Wind Speed Gust Speed Precip Events Conditions
12:18 AM 57.9 °F 56.8 °F 96% 29.79 in 10.0 mi East 10.4 mph 16.1 mph N/A Rain Light Rain
12:58 AM 57.9 °F 56.5 °F 95% 29.78 in 10.0 mi ESE 11.5 mph 17.3 mph N/A   Overcast
1:18 AM 58.1 °F 56.5 °F 94% 29.78 in 10.0 mi ESE 13.8 mph 19.6 mph N/A   Overcast
1:39 AM 58.1 °F 56.5 °F 94% 29.77 in 10.0 mi ESE 12.7 mph - N/A   Overcast
1:58 AM 58.1 °F 56.3 °F 94% 29.77 in 10.0 mi ESE 9.2 mph 17.3 mph N/A   Overcast
2:18 AM 58.1 °F 56.5 °F 94% 29.77 in 10.0 mi ESE 11.5 mph - N/A   Overcast
2:39 AM 58.1 °F 56.3 °F 94% 29.76 in 10.0 mi ESE 9.2 mph - N/A   Overcast
2:58 AM 57.7 °F 56.3 °F 95% 29.75 in 10.0 mi ESE 6.9 mph - N/A Rain Light Rain
3:18 AM 57.6 °F 56.8 °F 97% 29.75 in 10.0 mi ESE 8.1 mph - N/A Rain Light Rain
3:39 AM 57.6 °F 56.8 °F 97% 29.75 in 10.0 mi ESE 12.7 mph 16.1 mph N/A   Overcast
3:58 AM 58.1 °F 56.8 °F 96% 29.75 in 10.0 mi ESE 11.5 mph 16.1 mph N/A   Overcast
4:18 AM 57.9 °F 57.2 °F 97% 29.75 in 7.0 mi ESE 9.2 mph 16.1 mph N/A Rain Rain
4:38 AM 57.4 °F 57.2 °F 99% 29.74 in 10.0 mi ESE 9.2 mph 16.1 mph N/A   Mostly Cloudy
4:58 AM 57.7 °F 57.6 °F 99% 29.74 in 10.0 mi ESE 11.5 mph 17.3 mph N/A   Mostly Cloudy
5:19 AM 57.7 °F 57.4 °F 99% 29.73 in 10.0 mi ESE 12.7 mph 18.4 mph N/A   Overcast
5:38 AM 57.7 °F 57.6 °F 99% 29.73 in 10.0 mi ESE 10.4 mph - N/A   Overcast
5:58 AM 57.4 °F 57.2 °F 99% 29.72 in 10.0 mi East 11.5 mph - N/A   Overcast
6:19 AM 57.7 °F 57.6 °F 99% 29.72 in 10.0 mi East 11.5 mph 17.3 mph N/A   Overcast
6:38 AM 57.4 °F 57.4 °F 100% 29.72 in 10.0 mi East 9.2 mph - N/A   Overcast
6:58 AM 57.7 °F 57.7 °F 100% 29.72 in 10.0 mi ESE 9.2 mph - N/A   Overcast
7:18 AM 58.3 °F 58.3 °F 100% 29.72 in 10.0 mi ESE 8.1 mph 16.1 mph N/A   Overcast
7:38 AM 58.1 °F 58.1 °F 100% 29.72 in 5.0 mi East 9.2 mph 16.1 mph N/A   Overcast
7:59 AM 57.9 °F 57.9 °F 100% 29.73 in 1.2 mi ESE 6.9 mph - N/A   Overcast
8:19 AM 57.4 °F 57.4 °F 100% 29.72 in 0.2 mi East 8.1 mph 16.1 mph N/A Fog Fog
8:38 AM 57.4 °F 57.4 °F 100% 29.71 in 0.2 mi East 9.2 mph - N/A Fog Fog
8:59 AM 57.4 °F 57.4 °F 100% 29.70 in 0.2 mi East 10.4 mph 17.3 mph N/A Fog Fog
9:18 AM 57.7 °F 57.7 °F 100% 29.70 in 0.5 mi East 9.2 mph 17.3 mph N/A Fog Fog
9:39 AM 58.1 °F 58.1 °F 100% 29.70 in 0.2 mi East 6.9 mph 16.1 mph N/A Fog Fog
9:58 AM 58.3 °F 58.3 °F 100% 29.70 in 0.5 mi East 8.1 mph - N/A Fog Fog
10:19 AM 58.3 °F 58.3 °F 100% 29.70 in 0.2 mi East 6.9 mph - N/A Rain Light Rain
10:39 AM 58.5 °F 58.5 °F 100% 29.70 in 0.2 mi East 8.1 mph - N/A Rain Light Rain
10:58 AM 59.0 °F 59.0 °F 100% 29.71 in 0.2 mi ESE 6.9 mph - N/A Rain Light Rain
11:19 AM 59.0 °F 59.0 °F 100% 29.70 in 0.5 mi East 8.1 mph - N/A Fog Fog
11:39 AM 59.9 °F 59.9 °F 100% 29.70 in 1.5 mi ESE 4.6 mph - N/A   Overcast
11:58 AM 61.7 °F 61.7 °F 100% 29.70 in 4.0 mi SE 4.6 mph - N/A   Overcast
12:19 PM 64.4 °F 64.4 °F 100% 29.70 in 5.0 mi SE 5.8 mph - N/A   Light Drizzle
12:39 PM 64.9 °F 64.6 °F 99% 29.70 in 5.0 mi SE 4.6 mph - N/A   Overcast
12:58 PM 66.4 °F 65.8 °F 98% 29.70 in 5.0 mi SE 4.6 mph - N/A   Overcast
1:19 PM 66.7 °F 65.7 °F 96% 29.69 in 7.0 mi SE 4.6 mph - N/A   Overcast
1:39 PM 66.0 °F 65.1 °F 97% 29.69 in 5.0 mi ESE 3.5 mph - N/A   Overcast
1:59 PM 67.8 °F 66.2 °F 95% 29.69 in 7.0 mi Calm Calm - N/A   Overcast
2:19 PM 67.1 °F 66.0 °F 96% 29.69 in 7.0 mi Calm Calm - N/A   Overcast
2:38 PM 66.4 °F 64.9 °F 95% 29.70 in 5.0 mi WNW 4.6 mph - N/A   Overcast
2:59 PM 64.4 °F 63.9 °F 98% 29.70 in 4.0 mi Calm Calm - N/A   Overcast
3:19 PM 66.4 °F 65.5 °F 97% 29.70 in 7.0 mi Calm Calm - N/A   Overcast
3:38 PM 67.1 °F 65.1 °F 93% 29.70 in 4.0 mi Calm Calm - N/A   Overcast
3:59 PM 65.1 °F 64.0 °F 96% 29.70 in 5.0 mi ENE 3.5 mph - N/A   Overcast
4:19 PM 62.1 °F 61.3 °F 97% 29.70 in 4.0 mi East 6.9 mph - N/A   Overcast
4:38 PM 60.3 °F 60.1 °F 99% 29.70 in 1.8 mi East 8.1 mph - N/A   Overcast
4:59 PM 60.8 °F 60.8 °F 100% 29.69 in 1.2 mi ENE 8.1 mph - N/A   Overcast
5:19 PM 60.8 °F 60.4 °F 99% 29.69 in 2.0 mi ENE 6.9 mph - N/A   Overcast
5:38 PM 60.1 °F 59.9 °F 99% 29.70 in 1.8 mi ENE 8.1 mph - N/A   Overcast
5:59 PM 59.2 °F 59.2 °F 100% 29.70 in 1.0 mi ENE 6.9 mph - N/A   Overcast
6:19 PM 59.2 °F 59.2 °F 100% 29.70 in 1.8 mi ENE 9.2 mph - N/A   Overcast
6:39 PM 58.6 °F 58.6 °F 100% 29.70 in 1.8 mi East 9.2 mph - 0.01 in   Overcast
6:58 PM 58.5 °F 58.5 °F 100% 29.70 in 2.5 mi East 11.5 mph - 0.01 in   Overcast
7:19 PM 58.1 °F 58.1 °F 100% 29.70 in 3.0 mi East 5.8 mph - N/A   Overcast
7:38 PM 57.2 °F 57.2 °F 100% 29.72 in 3.0 mi ENE 5.8 mph - N/A   Overcast
7:59 PM 57.2 °F 57.2 °F 100% 29.71 in 3.0 mi ENE 11.5 mph 20.7 mph N/A   Overcast
8:19 PM 57.2 °F 57.2 °F 100% 29.72 in 4.0 mi East 12.7 mph 20.7 mph N/A   Overcast
8:38 PM 57.2 °F 57.2 °F 100% 29.72 in 4.0 mi East 12.7 mph 20.7 mph N/A   Overcast
8:59 PM 57.2 °F 57.2 °F 100% 29.72 in 5.0 mi East 13.8 mph 19.6 mph N/A   Overcast
9:19 PM 57.6 °F 57.6 °F 100% 29.72 in 7.0 mi East 11.5 mph 18.4 mph N/A   Overcast
9:38 PM 57.6 °F 57.6 °F 100% 29.72 in 7.0 mi East 10.4 mph 18.4 mph N/A   Light Drizzle
9:59 PM 57.4 °F 57.4 °F 100% 29.73 in 7.0 mi East 11.5 mph 18.4 mph N/A   Overcast
10:19 PM 57.7 °F 57.7 °F 100% 29.73 in 7.0 mi East 9.2 mph - N/A   Overcast
10:59 PM 58.5 °F 58.3 °F 99% 29.72 in 10.0 mi East 13.8 mph 23.0 mph N/A   Overcast
11:18 PM 59.0 °F 58.5 °F 98% 29.72 in 10.0 mi East 10.4 mph 20.7 mph N/A   Overcast
11:39 PM 59.0 °F 59.0 °F 100% 29.72 in 7.0 mi East 9.2 mph - N/A   Overcast
11:59 PM 59.0 °F 59.0 °F 100% 29.73 in 7.0 mi ENE 5.8 mph - N/A   Overcast